Voltar ao catálogo

STARLINK-34190

AtivoComunicaçõesVLEO
NORAD 64078·PAYLOAD·🇺🇸 United States

Lançado May 21, 2025 de Cape Canaveral Space Force Station

Loading…

Próximas Passagens (próximas 24 horas)

TLE

AtualizadoSource: CelesTrak SupGP

Época: Sep 14, 2026, 21:34 UTC

1 64078C 25107Q   26257.89909722  .00017852  00000+0  64654-3 0  2575
2 64078  43.0027 212.9427 0001217 258.6699 265.9471 15.27572559    19

Acompanhe STARLINK-34190 em tempo real com AllMySat

Download on the App Store